Regional Weather Roundup
Issued by NWS

Home | Current Version | Previous Version | Graphics & Text | Print | Product List | Glossary On
Versions: 1 2 3 4 5 6 7 8 9 10 11 12 13 14 15 16 17 18 19 20 21 22 23 24 25 26 27 28 29 30 31 32 33 34 35 36 37 38 39 40 41 42 43 44 45 46 47 48 49 50
000
ASUS44 KMEG 040900
RWRTN
TENNESSEE HOURLY STATE WEATHER ROUNDUP
NATIONAL WEATHER SERVICE MEMPHIS TN
400 AM CDT FRI SEP 04 2015

TNZ002-004-019-021-049-052-054-088>092-041000-
WEST TENNESSEE

CITY           SKY/WX    TMP DP  RH WIND       PRES   REMARKS
MEMPHIS INTL   CLEAR     77  71  82 CALM      29.97R
NWS MEMPHIS      N/A     72 N/A N/A MISG        N/A
JACKSON        CLEAR     70  67  90 CALM      29.97R FOG
DYERSBURG      CLEAR     73  70  88 E3        29.97S
UNION CITY     CLEAR    N/A N/A N/A CALM      29.97R
PARIS          CLEAR     64  64 100 CALM      29.99S
LEXINGTON      CLEAR     70  70 100 CALM      29.97S
$$

TNZ008-025-027-028-033-062-065-066-041000-
NORTH MIDDLE TENNESSEE

CITY           SKY/WX    TMP DP  RH WIND       PRES   REMARKS
NASHVILLE      CLEAR     75  68  78 CALM      29.99S
CLARKSVILLE    CLEAR     69  67  93 CALM      29.98S
COOKEVILLE     CLEAR     64  64 100 CALM      30.01S
CROSSVILLE     CLEAR     66  64  93 CALM      30.07R FOG
$$

TNZ061-075-076-078-094-096-097-041000-
SOUTH MIDDLE TENNESSEE

CITY           SKY/WX    TMP DP  RH WIND       PRES   REMARKS
FAYETTEVILLE   CLEAR     68  66  94 CALM      30.00S
TULLAHOMA      CLEAR     68  66  94 CALM      30.02S
WINCHESTER     CLEAR     66  66 100 CALM      30.01S
COLUMBIA       CLEAR    N/A N/A N/A CALM      29.98S
SHELBYVILLE    CLEAR     70  70 100 CALM      30.01S
$$

TNZ017-018-042-046-047-041000-
NORTHEAST TENNESSEE

CITY           SKY/WX    TMP DP  RH WIND       PRES   REMARKS
TRI CITIES     PTCLDY    63  62  97 NE3       30.05R FOG
ELIZABETHTON   SUNNY     63  63 100 CALM      30.06R FOG
$$

TNZ012-013-036-069-073-074-041000-
CENTRAL EAST TENNESSEE

CITY           SKY/WX    TMP DP  RH WIND       PRES   REMARKS
KNOXVILLE      CLEAR     69  69 100 CALM      30.00R
OAK RIDGE      CLEAR     69  66  90 CALM      30.02R
GATLINBURG     SUNNY     66  64  94 CALM      30.01R
$$

TNZ083-085-099-041000-
SOUTHEAST TENNESSEE

CITY           SKY/WX    TMP DP  RH WIND       PRES   REMARKS
CHATTANOOGA    CLEAR     71  68  90 CALM      29.99R
$$

SKY/WX REPORTED AS FAIR MEANS FEW OR NO CLOUDS BELOW
12 THOUSAND FEET.




USA.gov is the U.S. government's official web portal to all federal, state and local government web resources and services.